Overview Statistics Trail Chart Weather Telemetry Raw packets
 

This is the latest recevied weather packets stored in our database for station/object K5SVV. If no packets are shown the sender has not sent any weather packets the latest 10 day(s).

<< 56 57 58 59 60 61 62 >>
Time Temp. Humidity Pressure Rain* Wind** Luminosity Snow
1788278972 33.33° C 55% 1016.9 hPa 0 mm - 803 W/m² -
1788278668 32.78° C 57% 1016.9 hPa 0 mm - 767 W/m² -
1788278367 32.78° C 56% 1016.8 hPa 0 mm - 774 W/m² -
1788278062 32.78° C 58% 1016.8 hPa 0 mm - 711 W/m² -
1788277759 32.78° C 57% 1016.9 hPa 0 mm - 682 W/m² -
1788277458 32.78° C 57% 1016.8 hPa 0 mm - 676 W/m² -
1788277153 32.22° C 58% 1016.9 hPa 0 mm - 650 W/m² -
1788276852 32.22° C 59% 1016.7 hPa 0 mm - 642 W/m² -
1788276552 32.22° C 59% 1016.9 hPa 0 mm - 610 W/m² -
1788276247 31.67° C 61% 1016.8 hPa 0 mm - 555 W/m² -
1788275936 31.67° C 61% 1016.7 hPa 0 mm - 556 W/m² -
1788275635 31.67° C 60% 1016.9 hPa 0 mm - 522 W/m² -
1788275335 31.67° C 61% 1016.8 hPa 0 mm - 507 W/m² -
1788275033 31.11° C 62% 1016.8 hPa 0 mm - 500 W/m² -
1788274730 31.11° C 62% 1016.8 hPa 0 mm - 462 W/m² -
1788274430 31.11° C 64% 1016.9 hPa 0 mm - 440 W/m² -
1788274126 31.11° C 64% 1016.8 hPa 0 mm - 422 W/m² -
1788273821 30.56° C 66% 1017.1 hPa 0 mm - 411 W/m² -
1788273517 30.56° C 66% 1017.2 hPa 0 mm - 406 W/m² -
1788273213 30.56° C 67% 1017.1 hPa 0 mm - 373 W/m² -
1788272909 30° C 67% 1016.9 hPa 0 mm - 360 W/m² -
1788272608 30° C 67% 1017.1 hPa 0 mm - 347 W/m² -
1788272303 30° C 69% 1016.8 hPa 0 mm - 321 W/m² -
1788271998 29.44° C 70% 1016.8 hPa 0 mm - 311 W/m² -
1788271697 29.44° C 71% 1017.1 hPa 0 mm - 271 W/m² -

* Rain latest hour (hover to see other rain measurements)
** Current wind speed in m/s (hover to see current wind gust speed)